[[{"header":{"parameterUnit":"m.s-1","parameterCategory":1,"la1":30.2991,"la2":30.254,"lo1":-89.0895,"lo2":-89.0444,"dy":0.0017,"dx":0.0017,"nx":28,"ny":28,"refTime":"2025-09-17T21:00:00:Z","depth":0,"parameterNumber":2,"parameterNumberName":"U-component_of_WINDS"},"data":[0,0,0,0,0,0,0,0,0,0,0,0,0,0,0,0,0,0,0,0,0,0,0,0,0,0,0,0,0,0,0,0,0,0,0,0,0,0,0,0,0,0,0,0,0,0,0,0,0,0,0,0,0,0,0,0,0,0,-1.4964,-1.4964,0,-1.4951,-1.4951,-1.495,-1.4908,-1.4907,-1.4906,-1.4905,-1.4893,-1.4894,-1.4894,0,0,0,0,0,0,0,0,0,0,0,0,0,-1.4955,-1.4955,-1.4964,-1.4964,-1.4964,-1.4951,-1.4951,-1.495,-1.4908,-1.4907,-1.4906,-1.4905,-1.4893,-1.4893,-1.4894,0,0,0,0,0,0,0,0,0,0,0,0,0,-1.4952,-1.4955,-1.4964,-1.4941,-1.4939,-1.4951,-1.4951,-1.495,-1.4908,-1.4907,-1.4905,-1.4904,-1.4893,-1.4893,-1.4894,-1.4928,0,0,-1.4897,-1.4897,0,0,0,0,0,0,0,0,-1.4952,-1.4952,-1.4945,-1.4943,-1.494,-1.4929,-1.4943,-1.4943,-1.4909,-1.492,-1.4905,-1.4903,-1.4906,-1.4906,-1.4907,-1.4927,-1.4927,-1.4897,-1.4897,-1.4898,-1.4898,0,0,0,0,0,0,0,-1.4952,-1.4953,-1.4959,-1.4945,-1.4942,-1.4932,-1.493,-1.4943,-1.4921,-1.4919,-1.4916,-1.4915,-1.4905,-1.4906,-1.4906,-1.4927,-1.4897,-1.4898,-1.4898,-1.4898,-1.4975,-1.4976,0,0,0,0,0,0,-1.4956,-1.4953,-1.4959,-1.4958,-1.4943,-1.4933,-1.4931,-1.4934,-1.4921,-1.4918,-1.4916,-1.4913,-1.4905,-1.4905,-1.4905,-1.4944,-1.4898,-1.4899,-1.4899,-1.4973,-1.4975,-1.4977,0,0,0,0,0,0,-1.4956,-1.4957,-1.496,-1.4955,-1.4955,-1.4935,-1.4939,-1.4935,-1.4936,-1.4919,-1.4915,-1.4921,-1.4904,-1.4904,-1.4923,-1.4943,-1.4899,-1.49,-1.4971,-1.4974,-1.4976,-1.5021,0,0,0,0,0,0,-1.4956,-1.4957,-1.4969,-1.4955,-1.4955,-1.4977,-1.494,-1.4936,-1.4937,-1.4933,-1.4922,-1.4919,-1.4903,-1.4922,-1.4923,-1.4943,-1.49,-1.4969,-1.4972,-1.4975,-1.5018,-1.5025,-1.5031,0,0,0,0,0,-1.4955,-1.4983,-1.497,-1.4971,-1.497,-1.4978,-1.4978,-1.4958,-1.4939,-1.4951,-1.494,-1.492,-1.4941,-1.4924,-1.4926,-1.4946,-1.4968,-1.4972,-1.4975,-1.5015,-1.5024,-1.5031,0,0,0,0,0,0,-1.4999,-1.498,-1.4966,-1.4989,-1.4986,-1.4971,-1.4985,-1.4968,-1.4969,-1.4965,-1.4941,-1.4939,-1.4961,-1.4955,-1.4937,-1.4978,-1.4951,-1.4955,-1.4981,-1.4989,-1.4995,-1.4996,-1.4901,0,0,0,0,0,-1.5012,-1.5019,-1.5003,-1.5025,-1.5024,-1.5005,-1.5008,-1.4993,-1.4988,-1.4987,-1.4977,-1.4974,-1.498,-1.4984,-1.4988,-1.5017,-1.5014,-1.5032,-1.5039,-1.5044,-1.5048,-1.5063,-1.507,-1.4988,-1.4988,-1.4988,0,0,-1.5037,-1.5028,-1.5034,-1.5034,-1.5029,-1.5038,-1.5004,-1.5015,-1.5022,-1.4989,-1.5005,-1.4998,-1.4993,-1.5017,-1.5027,-1.5013,-1.507,-1.5048,-1.5053,-1.5053,-1.5067,-1.5075,-1.5082,-1.499,-1.499,-1.4989,0,0,-1.5089,-1.5082,-1.51,-1.5096,-1.5089,-1.5077,-1.5081,-1.5069,-1.5063,-1.5079,-1.5055,-1.5063,-1.5073,-1.5071,-1.5071,-1.5122,-1.5103,-1.5124,-1.5158,-1.5173,-1.5179,-1.5185,-1.5203,-1.521,-1.5128,-1.5128,-1.5128,0,-1.5121,-1.5134,-1.5112,-1.5124,-1.5125,-1.5095,-1.5114,-1.5111,-1.5106,-1.5108,-1.5092,-1.5105,-1.5099,-1.5122,-1.5135,-1.5136,-1.514,-1.5125,-1.518,-1.5186,-1.5191,-1.5208,-1.5215,-1.5131,-1.513,-1.513,-1.513,0,-1.5174,-1.5183,-1.5199,-1.5195,-1.5197,-1.5213,-1.5194,-1.5199,-1.5185,-1.5174,-1.5191,-1.5184,-1.5186,-1.519,-1.5176,-1.5212,-1.5203,-1.5184,-1.5156,-1.5201,-1.5217,-1.5224,-1.5134,-1.5133,-1.5133,-1.5132,0,0,-1.5252,-1.5236,-1.5242,-1.524,-1.5231,-1.5237,-1.5252,-1.5254,-1.5259,-1.5257,-1.5269,-1.5279,-1.5262,-1.5262,-1.5247,-1.526,-1.5302,-1.524,-1.5239,-1.5252,-1.534,-1.5354,-1.5362,-1.5289,-1.529,-1.5291,-1.5341,0,-1.5301,-1.5324,-1.5305,-1.5332,-1.5341,-1.5313,-1.5326,-1.5322,-1.5312,-1.5319,-1.5309,-1.5316,-1.5292,-1.5292,-1.5304,-1.5294,-1.5319,-1.529,-1.53,-1.5301,-1.5302,-1.537,-1.5385,-1.5432,-1.5347,-1.5348,-1.5348,0,-1.5361,-1.5361,-1.5389,-1.5378,-1.538,-1.5392,-1.5393,-1.5399,-1.5394,-1.5386,-1.5387,-1.5369,-1.5383,-1.5356,-1.5376,-1.5357,-1.536,-1.5356,-1.5357,-1.5357,-1.5327,-1.5372,-1.5446,-1.5454,-1.5358,-1.5357,-1.5356,0,-1.5415,-1.5422,-1.544,-1.5439,-1.5426,-1.5435,-1.5431,-1.5425,-1.5427,-1.5428,-1.5429,-1.5432,-1.5434,-1.5437,-1.542,-1.5402,-1.5442,-1.5414,-1.5436,-1.5437,-1.5446,-1.5445,-1.5522,-1.5448,-1.5448,-1.5448,-1.5448,0,-1.5471,-1.5489,-1.5464,-1.5475,-1.5494,-1.5473,-1.5493,-1.5486,-1.5481,-1.549,-1.5466,-1.5476,-1.5454,-1.5461,-1.5449,-1.5467,-1.5468,-1.5462,-1.5459,-1.5464,-1.5465,-1.5466,-1.5462,-1.545,-1.545,-1.5449,-1.5449,0,-1.5535,-1.5518,-1.5536,-1.5523,-1.552,-1.5535,-1.5524,-1.5534,-1.5523,-1.5535,-1.5537,-1.5521,-1.5528,-1.5512,-1.5517,-1.5509,-1.5535,-1.5526,-1.5536,-1.5534,-1.5557,-1.5555,-1.5636,-1.5646,-1.5567,-1.5568,-1.5568,0,-1.5571,-1.5584,-1.5573,-1.5577,-1.5574,-1.5581,-1.5583,-1.5563,-1.5567,-1.5563,-1.5573,-1.5579,-1.5582,-1.5595,-1.5584,-1.5588,-1.558,-1.5608,-1.558,-1.5585,-1.558,-1.5579,-1.5581,-1.5613,-1.5614,-1.5615,-1.5616,0,-1.5639,-1.563,-1.5634,-1.5635,-1.5639,-1.5639,-1.5638,-1.5643,-1.5622,-1.5627,-1.5634,-1.5637,-1.5642,-1.5648,-1.5649,-1.5645,-1.5627,-1.5625,-1.563,-1.5636,-1.5641,-1.5639,-1.5552,-1.5623,-1.5622,-1.5622,-1.5621,-1.5621,-1.569,-1.57,-1.5694,-1.5699,-1.5696,-1.5696,-1.5704,-1.5694,-1.57,-1.5702,-1.569,-1.57,-1.5695,-1.5696,-1.5694,-1.5701,-1.5689,-1.5697,-1.5699,-1.5701,-1.5705,-1.564,-1.5702,-1.5701,-1.5701,-1.5701,-1.5701,0,-1.5756,-1.575,-1.5755,-1.5754,-1.5759,-1.5741,-1.5739,-1.5744,-1.5753,-1.5749,-1.5753,-1.5762,-1.5767,-1.5757,-1.5761,-1.5769,-1.5761,-1.5771,-1.577,-1.5769,-1.5716,-1.5711,-1.5777,-1.5777,-1.5777,-1.5777,-1.5777,-1.5777,-1.5791,-1.5808,-1.5798,-1.5814,-1.5808,-1.5817,-1.5817,-1.5817,-1.5814,-1.5825,-1.5829,-1.5822,-1.5816,-1.5819,-1.5824,-1.5821,-1.5824,-1.5836,-1.5831,-1.5781,-1.5773,-1.5766,-1.5761,-1.5837,-1.5837,-1.5883,-1.5884,-1.5884]},{"header":{"parameterUnit":"m.s-1","parameterCategory":1,"la1":30.2991,"la2":30.254,"lo1":-89.0895,"lo2":-89.0444,"dy":0.0017,"dx":0.0017,"nx":28,"ny":28,"refTime":"2025-09-17T21:00:00:Z","depth":0,"parameterNumber":3,"parameterNumberName":"V-component_of_WINDS"},"data":[0,0,0,0,0,0,0,0,0,0,0,0,0,0,0,0,0,0,0,0,0,0,0,0,0,0,0,0,0,0,0,0,0,0,0,0,0,0,0,0,0,0,0,0,0,0,0,0,0,0,0,0,0,0,0,0,0,0,3.0069,3.0069,0,3.0052,3.0052,3.0051,3.0042,3.0042,3.0042,3.0042,3.0022,3.0021,3.0021,0,0,0,0,0,0,0,0,0,0,0,0,0,3.0092,3.0092,3.0069,3.0069,3.0069,3.0052,3.0052,3.0051,3.0042,3.0042,3.0042,3.0042,3.0022,3.0021,3.002,0,0,0,0,0,0,0,0,0,0,0,0,0,3.0079,3.0091,3.0069,3.0062,3.0061,3.0052,3.0052,3.0051,3.0042,3.0042,3.0042,3.0042,3.0022,3.0021,3.002,3.0016,0,0,3.0018,3.0018,0,0,0,0,0,0,0,0,3.008,3.0078,3.0063,3.0063,3.0062,3.0049,3.0052,3.004,3.0042,3.0049,3.0042,3.0042,3.0031,3.0029,3.0026,3.0015,3.0015,3.0018,3.0018,3.0017,3.0017,0,0,0,0,0,0,0,3.0081,3.0079,3.0062,3.0063,3.0062,3.0059,3.0057,3.005,3.004,3.0048,3.0048,3.0046,3.003,3.0027,3.0025,3.0014,3.0018,3.0017,3.0017,3.0017,2.9999,2.9999,0,0,0,0,0,0,3.0083,3.008,3.0063,3.0062,3.0071,3.0059,3.0056,3.0053,3.004,3.0038,3.0046,3.0046,3.0028,3.0026,3.0025,3.0019,3.0017,3.0016,3.0016,2.9999,2.9999,2.9999,0,0,0,0,0,0,3.0084,3.0082,3.0064,3.0071,3.0068,3.0058,3.0054,3.0053,3.0049,3.0038,3.0036,3.0044,3.0028,3.0026,3.0019,3.0018,3.0016,3.0015,2.9999,2.9999,2.9999,3.0007,0,0,0,0,0,0,3.0084,3.0082,3.0081,3.0071,3.0068,3.0059,3.0054,3.0052,3.0048,3.0048,3.0036,3.0034,3.0028,3.002,3.0018,3.0017,3.0015,2.9999,2.9999,2.9999,3.0007,3.0008,3.0008,0,0,0,0,0,3.0085,3.0083,3.0081,3.0079,3.0066,3.0059,3.0057,3.005,3.0048,3.0047,3.004,3.0035,3.0018,3.0019,3.0017,3.0016,2.9999,2.9999,2.9999,3.0007,3.0007,3.0008,0,0,0,0,0,0,3.0093,3.0082,3.0079,3.0074,3.0067,3.0057,3.0055,3.0051,3.0044,3.0043,3.0034,3.0032,3.0025,3.002,3.0021,3.0011,3.0008,3.0008,3.0015,3.0015,3.0016,3.0017,3.0014,0,0,0,0,0,3.0094,3.009,3.008,3.0076,3.0073,3.0065,3.0061,3.0056,3.0049,3.0046,3.0038,3.003,3.0024,3.0019,3.0012,3.0006,3.0003,3.0004,3.0005,3.0005,3.0005,3.0001,3.0001,2.9999,2.9999,2.9999,0,0,3.0096,3.009,3.0087,3.0078,3.0072,3.0067,3.0062,3.0057,3.0053,3.0045,3.0038,3.0032,3.0023,3.0016,3.0013,3.0011,3.0005,3.0005,3.0006,3.0005,3.0001,3.0001,3.0001,2.9999,2.9999,2.9999,0,0,3.0098,3.0093,3.0089,3.0084,3.0076,3.007,3.0069,3.0059,3.0055,3.0049,3.0042,3.0037,3.0025,3.0019,3.0014,3.0013,3.0008,3.0011,3.0013,3.001,3.001,3.001,3.0009,3.0009,3.0011,3.0011,3.0011,0,3.0102,3.0095,3.0088,3.0083,3.0079,3.0072,3.0068,3.0063,3.0052,3.0049,3.0048,3.0033,3.0026,3.0018,3.0018,3.0014,3.0012,3.0012,3.0011,3.0011,3.001,3.001,3.001,3.0011,3.0011,3.0011,3.0011,0,3.0099,3.0094,3.0092,3.0083,3.0079,3.0074,3.0066,3.0063,3.0058,3.0052,3.0045,3.0037,3.0028,3.0025,3.0021,3.0016,3.0016,3.0013,3.001,3.0011,3.001,3.001,3.0012,3.0011,3.0011,3.0011,0,0,3.0105,3.0093,3.0092,3.0088,3.0078,3.0074,3.0069,3.0061,3.0058,3.0051,3.0046,3.0036,3.0033,3.0028,3.0022,3.0019,3.0019,3.0016,3.0016,3.0017,3.0013,3.0015,3.0015,3.0015,3.0015,3.0015,3.0014,0,3.0105,3.0097,3.0091,3.0084,3.008,3.0073,3.0068,3.0062,3.0056,3.005,3.0044,3.0037,3.0034,3.003,3.0027,3.002,3.0018,3.002,3.001,3.001,3.0013,3.0015,3.0017,3.0016,3.0013,3.0013,3.0013,0,3.0104,3.0098,3.0092,3.0083,3.008,3.0077,3.0069,3.0064,3.0056,3.0052,3.0046,3.004,3.0034,3.0032,3.0022,3.0024,3.002,3.0015,3.0015,3.0014,3.0012,3.0013,3.0016,3.0016,3.0013,3.0013,3.0013,0,3.0109,3.0099,3.0094,3.0091,3.008,3.0078,3.0073,3.0065,3.006,3.0053,3.005,3.0042,3.0038,3.0031,3.0023,3.0022,3.0015,3.0012,3.001,3.0011,3.0009,3.0009,3.0011,3.0007,3.0007,3.0007,3.0007,0,3.011,3.0106,3.0096,3.0093,3.0088,3.0081,3.0076,3.0071,3.0064,3.0059,3.0052,3.0047,3.0037,3.0031,3.0025,3.0018,3.0016,3.0012,3.001,3.0012,3.0013,3.0009,3.0009,3.0007,3.0007,3.0007,3.0007,0,3.0114,3.0108,3.0102,3.0092,3.009,3.0087,3.0078,3.0074,3.0068,3.0062,3.006,3.0051,3.0043,3.0035,3.0024,3.002,3.0013,3.0011,3.0016,3.0015,3.0014,3.0014,3.0013,3.0012,3.0009,3.0009,3.0009,0,3.0115,3.0112,3.0103,3.0099,3.0095,3.0089,3.0085,3.0078,3.0073,3.0064,3.0061,3.0053,3.0046,3.0034,3.0026,3.0017,3.0015,3.0015,3.0013,3.0016,3.0014,3.0015,3.0014,3.0015,3.0015,3.0015,3.0015,0,3.0117,3.0114,3.0109,3.0102,3.0097,3.0091,3.0085,3.0082,3.0073,3.0069,3.0061,3.0056,3.0046,3.0038,3.0028,3.0022,3.0017,3.0016,3.0015,3.0017,3.0021,3.0019,3.0017,3.0016,3.0016,3.0016,3.0016,3.0016,3.0119,3.0117,3.0109,3.0103,3.0098,3.0093,3.0089,3.0083,3.0077,3.0068,3.0064,3.0056,3.0048,3.0035,3.0029,3.0022,3.0021,3.002,3.0019,3.0019,3.002,3.0022,3.0021,3.0021,3.0021,3.0021,3.0021,0,3.0121,3.0116,3.0111,3.0103,3.0098,3.0095,3.0087,3.0083,3.0077,3.007,3.0064,3.0055,3.0047,3.0038,3.003,3.0026,3.0024,3.0024,3.0024,3.0023,3.0022,3.0023,3.0026,3.0026,3.0026,3.0026,3.0026,3.0026,3.0121,3.0116,3.0112,3.0104,3.0099,3.0092,3.0089,3.0083,3.0077,3.0068,3.0062,3.0057,3.0049,3.0039,3.0032,3.0029,3.0026,3.0028,3.0024,3.0023,3.0023,3.0022,3.0024,3.0027,3.0027,3.0026,3.0026,3.0026]}]]